This demonstration page uses our WeatherBlox Daily Observations layout. Learn more.

Left ArrowRight Arrow

39.12711, -84.51439

Hourly Observations for January 21, 2018

Temp ( °F °C ) Dew Point ( °F °C ) Humidity (%) Winds ( mph kmh ) Pressure ( in mb ) Visibility ( mi km ) Precip ( " mm )
12:08 am 00:08 Cloudy with Light Rain 40 4.4 39 3.9 97 97 N N/A 30.12 1020 10 16 N/A
12:53 am 00:53 Cloudy 40 4.4 39 3.9 97 97 N N/A 30.12 1020 10 16 N/A
1:41 am 01:41 Cloudy 39 3.9 39 3.9 100 100 N N/A 30.12 1020 10 16 N/A
1:53 am 01:53 Cloudy 40 4.4 39 3.9 97 97 N N/A 30.12 1020 10 16 N/A
2:32 am 02:32 Cloudy 40 4.4 38 3.3 93 93 N N/A 30.12 1020 10 16 N/A
2:45 am 02:45 Cloudy 40 4.4 39 3.9 97 97 N N/A 30.12 1020 10 16 N/A
2:53 am 02:53 Cloudy 40 4.4 39 3.9 97 97 N N/A 30.12 1020 10 16 N/A
3:53 am 03:53 Cloudy 40 4.4 39 3.9 97 97 N N/A 30.11 1020 10 16 N/A
4:53 am 04:53 Cloudy 39 3.9 37 2.8 93 93 N N/A 30.11 1020 10 16 N/A
5:53 am 05:53 Cloudy 38 3.3 37 2.8 97 97 N N/A 30.12 1020 10 16 N/A
6:53 am 06:53 Cloudy 38 3.3 37 2.8 97 97 N N/A 30.12 1020 10 16 N/A
7:53 am 07:53 Cloudy 39 3.9 38 3.3 96 96 N N/A 30.13 1020 10 16 N/A
8:53 am 08:53 Cloudy 42 5.6 40 4.4 92 92 N N/A 30.13 1020 10 16 N/A
9:53 am 09:53 Cloudy 47 8.3 42 5.6 83 83 N N/A 30.13 1020 10 16 N/A
10:53 am 10:53 Cloudy 53 11.7 44 6.7 72 72 SSW 12 19 30.13 1020 10 16 N/A
11:53 am 11:53 Cloudy 55 12.8 46 7.8 72 72 SSW 13 20 30.11 1020 10 16 N/A
12:53 pm 12:53 Cloudy 57 13.9 48 8.9 72 72 SW 13 20 30.08 1019 10 16 N/A
1:53 pm 13:53 Cloudy 56 13.3 48 8.9 75 75 SSW 12 19 30.06 1018 10 16 N/A
1:54 pm 13:54 Cloudy 57 13.9 48 8.9 72 72 SSW 12 19 30.06 1018 10 16 N/A
2:53 pm 14:53 Cloudy 56 13.3 49 9.4 77 77 S 10 17 30.05 1018 10 16 N/A
3:53 pm 15:53 Cloudy 55 12.8 49 9.4 80 80 SSW 8 13 30.05 1018 10 16 N/A
4:53 pm 16:53 Cloudy 54 12.2 50 10 87 87 S 9 15 30.06 1018 10 16 N/A
5:53 pm 17:53 Cloudy 54 12.2 50 10 87 87 SSW 7 11 30.06 1018 10 16 N/A
6:53 pm 18:53 Cloudy 54 12.2 50 10 87 87 SSW 8 13 30.06 1018 10 16 N/A
7:32 pm 19:32 Cloudy 53 11.7 50 10 89 89 WSW 3 6 30.06 1018 10 16 N/A
7:53 pm 19:53 Cloudy 54 12.2 50 10 87 87 N N/A 30.06 1018 10 16 N/A
8:53 pm 20:53 Cloudy 50 10 48 8.9 93 93 N N/A 30.06 1018 10 16 N/A
9:53 pm 21:53 Cloudy 49 9.4 47 8.3 93 93 N N/A 30.05 1018 10 16 N/A
10:53 pm 22:53 Cloudy 47 8.3 47 8.3 100 100 N N/A 30.04 1017 8 13 N/A
11:53 pm 23:53 Cloudy 47 8.3 46 7.8 97 97 N N/A 30.02 1017 9 14 N/A

Powered by AerisWeather